#timestamp,LO_Frequency,Hit,StdDev 
1634378415.3,286047019.5,N
1634378435.1,286047022.6,N
1634378455.8,286047025.6,N
1634378475.7,286047017.9,N
1634378495.5,286047015.1,N
1634378515.4,286047013.5,N
1634378535.2,286047015.3,N
1634378555.0,286047017.6,N
1634378555.9,286047017.6,N
1634378575.8,286047019.0,N
1634378595.6,286047018.2,N
1634378615.4,286047016.1,N
1634378635.3,286047013.0,N
1634378655.1,286047009.9,N
1634378675.9,286047008.5,N
1634378695.7,286047007.5,N
1634378715.5,286047004.9,N
1634378735.4,286047002.0,N
1634378755.2,286047001.3,N
1634378775.0,286047006.6,N
1634378775.9,286047006.6,N
1634378795.8,286047006.7,N
1634378815.6,286047002.9,N
1634378835.5,286047004.1,N
1634378855.3,286046998.5,N
1634378875.1,286046997.6,N
1634378895.9,286046995.8,N
1634378915.7,286046994.1,N
1634378935.5,286046996.3,N
1634378955.4,286046995.3,N
1634378975.2,286046997.8,N
1634378995.1,286046999.4,N
1634378996.0,286046999.4,N
1634379015.8,286046999.9,N
1634379035.6,286047002.4,N
1634379055.5,286047002.6,N
1634379075.3,286047002.2,N
1634379095.1,286047001.9,N
1634379115.9,286047002.5,N
1634379135.7,286047001.8,N
1634379155.6,286047007.1,N
1634379175.4,286047007.6,N
1634379195.2,286047005.8,N
1634379215.1,286047006.3,N
1634379216.0,286047006.3,N
1634379235.8,286047001.8,N
1634379255.7,286047001.7,N
1634379275.5,286047002.2,N
1634379295.3,286047006.4,N
1634379315.2,286047004.2,N
1634379335.0,286047005.1,N
1634379335.9,286047005.1,N
1634379355.7,286047002.4,N
1634379375.6,286046999.4,N
1634379395.4,286046995.7,N
1634379415.3,286046988.9,N
1634379435.1,286046985.4,Y
1634379455.8,286046986.6,P
1634379475.7,286046986.6,N
1634379495.5,286046992.1,N
1634379515.4,286046996.4,N
1634379535.2,286046995.2,N
1634379555.0,286046999.1,N
1634379555.9,286046999.1,N
1634379575.8,286046998.4,N
1634379595.6,286046998.2,N
1634379615.4,286046999.4,N
1634379635.3,286046997.7,N
1634379655.1,286047000.3,N
1634379675.9,286046998.7,N
1634379695.7,286046997.3,N
1634379715.5,286046997.1,N
1634379735.4,286046998.3,N
1634379755.2,286047002.8,N
1634379775.0,286047005.5,N
1634379776.0,286047005.5,N
1634379795.8,286047000.3,N
1634379815.6,286047003.9,N
1634379835.5,286047008.8,N
1634379855.3,286047006.0,N
1634379875.1,286046998.1,N
1634379895.9,286046997.5,N
1634379915.7,286046993.8,N
1634379935.6,286046999.6,N
1634379955.4,286046995.9,N
1634379975.2,286046993.5,N
1634379995.1,286046993.6,N
1634379996.0,286046993.6,N
1634380015.8,286046998.0,N
1634380035.7,286046993.6,N
1634380055.5,286046995.0,N
1634380075.3,286046994.9,N
1634380095.2,286046994.0,N
1634380115.0,286046992.8,N
1634380115.9,286046992.8,N
1634380135.7,286046989.1,N
1634380155.6,286046990.8,N
1634380175.4,286046994.0,N
1634380195.3,286046994.2,N
1634380215.1,286046996.2,N
1634380216.0,286046996.2,N
1634380235.8,286046998.2,N
1634380255.7,286046999.2,N
1634380275.5,286046996.2,N
1634380295.3,286046993.9,N
1634380315.2,286046994.4,N
1634380335.0,286046994.7,N
1634380335.9,286046994.7,N
1634380355.8,286046995.4,N
1634380375.6,286047000.4,N
1634380395.4,286047001.4,N
1634380415.3,286046999.7,N
1634380435.1,286047000.0,N
1634380455.9,286047002.4,N
1634380475.7,286046998.1,N
1634380495.5,286046997.8,N
1634380515.4,286046992.1,N
1634380535.2,286046990.2,Y
1634380555.0,286046994.6,P
1634380555.9,286046994.6,P
1634380575.8,286046996.2,P
1634380595.6,286046997.0,Y
1634380615.5,286046999.7,P
1634380635.3,286047002.5,N
1634380655.1,286047005.8,N
1634380675.9,286047004.1,N
1634380695.7,286047004.0,N
1634380715.6,286047003.6,N
1634380735.4,286047007.3,N
1634380755.2,286047005.5,N
1634380775.1,286047001.3,N
1634380776.0,286047001.3,N
1634380795.8,286047000.4,N
1634380815.6,286046999.1,N
1634380835.5,286046995.4,N
1634380855.3,286046995.3,N
1634380875.2,286046996.3,N
1634380895.9,286046994.1,N
1634380915.7,286046994.7,N
1634380935.6,286046992.9,N
1634380955.4,286046991.5,N
1634380975.2,286046987.3,N
1634380995.1,286046987.1,N
1634380996.0,286046987.1,N
1634381015.8,286046988.2,N
1634381035.7,286046985.8,N
1634381055.5,286046986.0,N
1634381075.3,286046984.1,N
1634381095.2,286046985.4,N
1634381115.0,286046984.3,N
1634381115.9,286046984.3,N
1634381135.7,286046984.5,N
1634381155.6,286046982.5,N
1634381175.4,286046983.1,N
1634381195.3,286046982.7,N
1634381215.1,286046983.0,N
1634381216.0,286046983.0,N
1634381235.8,286046983.5,N
1634381255.7,286046982.8,N
1634381275.5,286046983.0,N
1634381295.3,286046983.4,N
1634381315.2,286046979.6,Y
1634381335.0,286046992.7,P
1634381335.9,286046992.7,P
1634381355.8,286046990.7,P
1634381375.6,286046993.4,Y
1634381395.4,286047005.0,P
1634381415.3,286047007.3,N
1634381435.1,286047003.7,N
1634381455.9,286047003.2,N
1634381475.7,286047001.7,N
1634381495.5,286047004.4,N
1634381515.4,286047002.0,N
1634381535.2,286047000.2,N
1634381555.0,286047002.3,N
1634381555.9,286047002.3,N
1634381575.8,286047000.8,N
1634381595.6,286046998.3,N
1634381615.5,286046999.6,N
1634381635.3,286046995.4,N
1634381655.1,286046996.1,N
1634381675.9,286046995.8,N
1634381695.7,286046996.2,N
1634381715.5,286047011.9,N
1634381735.4,286046995.4,N
1634381755.2,286046995.9,N
1634381775.1,286046996.1,N
1634381776.0,286046996.1,N
1634381795.8,286046995.9,N
1634381815.6,286046994.8,N
1634381835.5,286046995.9,N
1634381855.3,286046995.9,N
1634381875.2,286046995.2,N
1634381895.9,286046995.4,N
1634381915.7,286046993.9,N
1634381935.6,286046994.3,N
1634381955.4,286046992.0,N
1634381975.2,286046993.0,N
1634381995.1,286046990.9,N
1634381996.0,286046990.9,N
